Station Historical Data
Daily Summary for October 13, 2017 Units:  English    Metric   Both
« Previous Day
Next Day »
Daily Weekly Monthly Yearly Custom
  High: Low: Average:
Temperature: 66.9 °F 48.4 °F 55.7 °F
Dew Point: 29.7 °F 19.2 °F 25.9 °F
Humidity: 43 % 22 % 32 %
Wind Speed: 9.0 mph 0.0 mph 1.1 mph
Wind Gust: 11.0 mph - -
Wind:- - SSE
Pressure: 30.17 in 30.10 in -
Precipitation: 0.00 in    
Historical Graphs
 
 
Tabular Data for October 13, 2017
Time Temperature Dew Point Pressure Wind Wind Speed Wind Gust Humidity Rainfall Rate (Hourly) solar
00:04 51.7 °F 28.8 °F 30.11 in Calm   6.0 mph 41 % 0.00 in 0.00 W/m2
00:09 51.6 °F 28.7 °F 30.11 in ESE 4.0 mph 5.0 mph 41 % 0.00 in 0.00 W/m2
00:14 51.5 °F 28.6 °F 30.11 in ESE 2.0 mph 6.0 mph 41 % 0.00 in 0.00 W/m2
00:19 51.4 °F 28.5 °F 30.11 in Calm   5.0 mph 41 % 0.00 in 0.00 W/m2
00:24 51.3 °F 28.4 °F 30.11 in Calm   4.0 mph 41 % 0.00 in 0.00 W/m2
00:29 51.1 °F 28.2 °F 30.11 in Calm     41 % 0.00 in 0.00 W/m2
00:34 51.0 °F 28.1 °F 30.11 in Calm   4.0 mph 41 % 0.00 in 0.00 W/m2
00:39 50.9 °F 28.1 °F 30.11 in Calm   6.0 mph 41 % 0.00 in 0.00 W/m2
00:44 50.8 °F 28.0 °F 30.11 in East 1.0 mph 5.0 mph 41 % 0.00 in 0.00 W/m2
00:49 50.6 °F 27.8 °F 30.10 in East 5.0 mph 6.0 mph 41 % 0.00 in 0.00 W/m2
00:54 50.5 °F 27.7 °F 30.10 in Calm   5.0 mph 41 % 0.00 in 0.00 W/m2
00:59 50.4 °F 28.2 °F 30.10 in Calm   4.0 mph 42 % 0.00 in 0.00 W/m2
01:04 50.3 °F 27.5 °F 30.10 in Calm   4.0 mph 41 % 0.00 in 0.00 W/m2
01:09 50.1 °F 27.3 °F 30.10 in Calm   5.0 mph 41 % 0.00 in 0.00 W/m2
01:14 50.1 °F 27.3 °F 30.10 in Calm     41 % 0.00 in 0.00 W/m2
01:19 50.0 °F 27.2 °F 30.11 in East 1.0 mph 7.0 mph 41 % 0.00 in 0.00 W/m2
01:24 50.0 °F 27.2 °F 30.11 in East 4.0 mph 6.0 mph 41 % 0.00 in 0.00 W/m2
01:29 49.9 °F 27.7 °F 30.11 in East 1.0 mph 6.0 mph 42 % 0.00 in 0.00 W/m2
01:34 49.8 °F 27.1 °F 30.11 in Calm   5.0 mph 41 % 0.00 in 0.00 W/m2
01:39 49.7 °F 27.0 °F 30.11 in East 5.0 mph 5.0 mph 41 % 0.00 in 0.00 W/m2
01:44 49.6 °F 26.9 °F 30.11 in ESE 6.0 mph 8.0 mph 41 % 0.00 in 0.00 W/m2
01:49 49.6 °F 26.9 °F 30.11 in Calm   6.0 mph 41 % 0.00 in 0.00 W/m2
01:54 49.4 °F 26.7 °F 30.11 in East 2.0 mph 2.0 mph 41 % 0.00 in 0.00 W/m2
01:59 49.3 °F 26.6 °F 30.11 in Calm   4.0 mph 41 % 0.00 in 0.00 W/m2
02:04 49.2 °F 26.5 °F 30.11 in East 5.0 mph 5.0 mph 41 % 0.00 in 0.00 W/m2
02:09 49.1 °F 25.8 °F 30.11 in Calm   2.0 mph 40 % 0.00 in 0.00 W/m2
02:14 49.1 °F 25.8 °F 30.11 in Calm   5.0 mph 40 % 0.00 in 0.00 W/m2
02:19 49.0 °F 25.8 °F 30.11 in East 6.0 mph 7.0 mph 40 % 0.00 in 0.00 W/m2
02:24 49.0 °F 25.8 °F 30.11 in East 5.0 mph 7.0 mph 40 % 0.00 in 0.00 W/m2
02:29 48.9 °F 25.7 °F 30.11 in East 4.0 mph 6.0 mph 40 % 0.00 in 0.00 W/m2
02:34 48.9 °F 25.7 °F 30.11 in Calm   5.0 mph 40 % 0.00 in 0.00 W/m2
02:40 48.8 °F 25.0 °F 30.11 in Calm   5.0 mph 39 % 0.00 in 0.00 W/m2
02:45 48.8 °F 25.0 °F 30.10 in Calm   8.0 mph 39 % 0.00 in 0.00 W/m2
02:50 48.8 °F 25.0 °F 30.10 in Calm   7.0 mph 39 % 0.00 in 0.00 W/m2
02:55 48.7 °F 24.9 °F 30.10 in Calm   7.0 mph 39 % 0.00 in 0.00 W/m2
03:00 48.7 °F 24.9 °F 30.10 in Calm   6.0 mph 39 % 0.00 in 0.00 W/m2
03:05 48.6 °F 24.8 °F 30.10 in Calm   7.0 mph 39 % 0.00 in 0.00 W/m2
03:10 48.6 °F 24.2 °F 30.10 in East 1.0 mph 7.0 mph 38 % 0.00 in 0.00 W/m2
03:12 48.6 °F 24.2 °F 30.10 in Calm   6.0 mph 38 % 0.00 in 0.00 W/m2
03:17 48.6 °F 24.2 °F 30.10 in East 2.0 mph 7.0 mph 38 % 0.00 in 0.00 W/m2
03:22 48.6 °F 24.2 °F 30.10 in Calm   7.0 mph 38 % 0.00 in 0.00 W/m2
03:27 48.5 °F 23.4 °F 30.10 in Calm   7.0 mph 37 % 0.00 in 0.00 W/m2
03:32 48.5 °F 23.4 °F 30.10 in Calm   6.0 mph 37 % 0.00 in 0.00 W/m2
03:37 48.5 °F 23.4 °F 30.10 in Calm   8.0 mph 37 % 0.00 in 0.00 W/m2
03:42 48.5 °F 22.8 °F 30.10 in East 5.0 mph 6.0 mph 36 % 0.00 in 0.00 W/m2
03:47 48.5 °F 22.8 °F 30.10 in Calm   8.0 mph 36 % 0.00 in 0.00 W/m2
03:52 48.5 °F 22.1 °F 30.10 in Calm   7.0 mph 35 % 0.00 in 0.00 W/m2
03:57 48.5 °F 22.1 °F 30.10 in ESE 2.0 mph 6.0 mph 35 % 0.00 in 0.00 W/m2
04:02 48.5 °F 22.1 °F 30.10 in ESE 4.0 mph 7.0 mph 35 % 0.00 in 0.00 W/m2
04:07 48.5 °F 22.1 °F 30.10 in ESE 1.0 mph 5.0 mph 35 % 0.00 in 0.00 W/m2
04:12 48.5 °F 22.1 °F 30.10 in ESE 2.0 mph 6.0 mph 35 % 0.00 in 0.00 W/m2
04:17 48.5 °F 22.1 °F 30.10 in ESE 2.0 mph 7.0 mph 35 % 0.00 in 0.00 W/m2
04:22 48.5 °F 21.4 °F 30.10 in Calm   7.0 mph 34 % 0.00 in 0.00 W/m2
04:27 48.5 °F 21.4 °F 30.10 in ESE 5.0 mph 8.0 mph 34 % 0.00 in 0.00 W/m2
04:32 48.5 °F 21.4 °F 30.10 in Calm   6.0 mph 34 % 0.00 in 0.00 W/m2
04:37 48.5 °F 21.4 °F 30.10 in ESE 2.0 mph 7.0 mph 34 % 0.00 in 0.00 W/m2
04:43 48.4 °F 21.3 °F 30.10 in ESE 2.0 mph 8.0 mph 34 % 0.00 in 0.00 W/m2
04:48 48.4 °F 20.6 °F 30.11 in ESE 5.0 mph 7.0 mph 33 % 0.00 in 0.00 W/m2
04:53 48.4 °F 20.6 °F 30.11 in Calm   8.0 mph 33 % 0.00 in 0.00 W/m2
04:58 48.4 °F 20.6 °F 30.11 in ESE 4.0 mph 6.0 mph 33 % 0.00 in 0.00 W/m2
05:03 48.4 °F 20.6 °F 30.11 in Calm   6.0 mph 33 % 0.00 in 0.00 W/m2
05:08 48.5 °F 20.0 °F 30.11 in Calm   6.0 mph 32 % 0.00 in 0.00 W/m2
05:13 48.5 °F 20.0 °F 30.11 in ESE 2.0 mph 7.0 mph 32 % 0.00 in 0.00 W/m2
05:18 48.5 °F 20.0 °F 30.11 in Calm     32 % 0.00 in 0.00 W/m2
05:23 48.5 °F 20.0 °F 30.11 in ESE 2.0 mph 4.0 mph 32 % 0.00 in 0.00 W/m2
05:28 48.5 °F 20.0 °F 30.11 in ESE 4.0 mph 8.0 mph 32 % 0.00 in 0.00 W/m2
05:33 48.5 °F 20.0 °F 30.11 in Calm   7.0 mph 32 % 0.00 in 0.00 W/m2
05:38 48.5 °F 20.0 °F 30.11 in Calm   8.0 mph 32 % 0.00 in 0.00 W/m2
05:43 48.5 °F 20.0 °F 30.11 in Calm   7.0 mph 32 % 0.00 in 0.00 W/m2
05:48 48.5 °F 20.0 °F 30.11 in Calm   6.0 mph 32 % 0.00 in 0.00 W/m2
05:53 48.5 °F 20.0 °F 30.11 in Calm   6.0 mph 32 % 0.00 in 0.00 W/m2
05:58 48.5 °F 20.0 °F 30.11 in Calm   6.0 mph 32 % 0.00 in 0.00 W/m2
06:03 48.5 °F 20.0 °F 30.11 in ESE 4.0 mph 7.0 mph 32 % 0.00 in 0.00 W/m2
06:08 48.4 °F 19.9 °F 30.11 in ESE 6.0 mph 7.0 mph 32 % 0.00 in 0.00 W/m2
06:13 48.4 °F 19.9 °F 30.11 in ESE 2.0 mph 8.0 mph 32 % 0.00 in 0.00 W/m2
06:18 48.4 °F 19.9 °F 30.11 in ESE 5.0 mph 8.0 mph 32 % 0.00 in 0.00 W/m2
06:23 48.4 °F 19.9 °F 30.11 in ESE 2.0 mph 8.0 mph 32 % 0.00 in 0.00 W/m2
06:28 48.4 °F 19.2 °F 30.12 in Calm   8.0 mph 31 % 0.00 in 0.00 W/m2
06:33 48.4 °F 19.9 °F 30.12 in Calm   9.0 mph 32 % 0.00 in 0.00 W/m2
06:38 48.4 °F 19.2 °F 30.12 in ESE 5.0 mph 11.0 mph 31 % 0.00 in 0.00 W/m2
06:43 48.4 °F 19.2 °F 30.12 in East 9.0 mph 9.0 mph 31 % 0.00 in 0.00 W/m2
06:48 48.5 °F 19.3 °F 30.12 in East 7.0 mph 11.0 mph 31 % 0.00 in 0.00 W/m2
06:53 48.5 °F 19.3 °F 30.12 in East 8.0 mph 9.0 mph 31 % 0.00 in 0.00 W/m2
06:58 48.5 °F 20.0 °F 30.12 in East 2.0 mph 8.0 mph 32 % 0.00 in 0.00 W/m2
07:03 48.5 °F 20.0 °F 30.12 in Calm   6.0 mph 32 % 0.00 in 0.00 W/m2
07:08 48.5 °F 20.0 °F 30.12 in East 1.0 mph 7.0 mph 32 % 0.00 in 5.00 W/m2
07:13 48.5 °F 19.3 °F 30.12 in Calm   8.0 mph 31 % 0.00 in 9.00 W/m2
07:18 48.5 °F 19.3 °F 30.13 in Calm   8.0 mph 31 % 0.00 in 11.00 W/m2
07:23 48.5 °F 19.3 °F 30.13 in East 2.0 mph 8.0 mph 31 % 0.00 in 14.00 W/m2
07:28 48.5 °F 20.0 °F 30.13 in East 4.0 mph 6.0 mph 32 % 0.00 in 18.00 W/m2
07:33 48.5 °F 20.0 °F 30.13 in Calm   5.0 mph 32 % 0.00 in 21.00 W/m2
07:38 48.4 °F 19.2 °F 30.13 in ESE 4.0 mph 6.0 mph 31 % 0.00 in 28.00 W/m2
07:39 48.4 °F 19.2 °F 30.13 in ESE 2.0 mph 6.0 mph 31 % 0.00 in 30.00 W/m2
07:44 48.4 °F 19.9 °F 30.13 in Calm   6.0 mph 32 % 0.00 in 42.00 W/m2
07:49 48.4 °F 19.9 °F 30.13 in Calm   8.0 mph 32 % 0.00 in 56.00 W/m2
07:59 48.5 °F 20.0 °F 30.14 in ESE 1.0 mph 5.0 mph 32 % 0.00 in 84.00 W/m2
08:04 48.5 °F 20.7 °F 30.14 in ESE 6.0 mph 6.0 mph 33 % 0.00 in 102.00 W/m2
08:09 48.6 °F 20.8 °F 30.14 in ESE 2.0 mph 5.0 mph 33 % 0.00 in 120.00 W/m2
08:14 48.6 °F 21.5 °F 30.14 in Calm   6.0 mph 34 % 0.00 in 139.00 W/m2
08:19 48.7 °F 21.6 °F 30.14 in ESE 1.0 mph 6.0 mph 34 % 0.00 in 158.00 W/m2
08:24 48.7 °F 21.6 °F 30.14 in Calm   6.0 mph 34 % 0.00 in 178.00 W/m2
08:29 48.8 °F 22.4 °F 30.14 in Calm   6.0 mph 35 % 0.00 in 197.00 W/m2
08:34 48.9 °F 22.5 °F 30.14 in Calm   1.0 mph 35 % 0.00 in 218.00 W/m2
08:39 49.0 °F 23.2 °F 30.14 in Calm   4.0 mph 36 % 0.00 in 234.00 W/m2
08:44 49.2 °F 24.1 °F 30.15 in Calm     37 % 0.00 in 255.00 W/m2
08:49 49.3 °F 24.8 °F 30.15 in Calm     38 % 0.00 in 274.00 W/m2
08:54 49.4 °F 24.9 °F 30.15 in Calm     38 % 0.00 in 292.00 W/m2
08:59 49.6 °F 25.0 °F 30.15 in Calm     38 % 0.00 in 309.00 W/m2
09:04 49.7 °F 25.8 °F 30.15 in Calm     39 % 0.00 in 327.00 W/m2
09:09 49.9 °F 26.0 °F 30.15 in Calm     39 % 0.00 in 343.00 W/m2
09:14 50.0 °F 26.6 °F 30.15 in Calm     40 % 0.00 in 355.00 W/m2
09:19 50.3 °F 28.1 °F 30.16 in Calm     42 % 0.00 in 371.00 W/m2
09:24 50.5 °F 28.3 °F 30.16 in Calm     42 % 0.00 in 387.00 W/m2
09:29 50.8 °F 29.1 °F 30.16 in Calm     43 % 0.00 in 403.00 W/m2
09:34 51.3 °F 28.4 °F 30.16 in Calm     41 % 0.00 in 417.00 W/m2
09:39 51.6 °F 28.7 °F 30.16 in Calm     41 % 0.00 in 432.00 W/m2
09:44 52.0 °F 28.5 °F 30.16 in Calm     40 % 0.00 in 445.00 W/m2
09:49 52.4 °F 28.8 °F 30.16 in Calm     40 % 0.00 in 459.00 W/m2
09:55 52.7 °F 25.8 °F 30.17 in Calm     35 % 0.00 in 471.00 W/m2
10:00 53.3 °F 25.0 °F 30.17 in Calm     33 % 0.00 in 485.00 W/m2
10:05 54.2 °F 24.2 °F 30.17 in Calm     31 % 0.00 in 496.00 W/m2
10:10 55.3 °F 24.4 °F 30.17 in Calm     30 % 0.00 in 506.00 W/m2
10:15 56.2 °F 25.2 °F 30.17 in Calm     30 % 0.00 in 520.00 W/m2
10:20 56.9 °F 25.8 °F 30.17 in Calm     30 % 0.00 in 533.00 W/m2
10:25 57.3 °F 25.3 °F 30.17 in Calm     29 % 0.00 in 543.00 W/m2
10:30 57.6 °F 25.6 °F 30.17 in Calm     29 % 0.00 in 555.00 W/m2
10:35 58.1 °F 26.0 °F 30.17 in Calm     29 % 0.00 in 564.00 W/m2
10:40 58.5 °F 27.2 °F 30.17 in Calm     30 % 0.00 in 575.00 W/m2
10:45 58.8 °F 27.5 °F 30.17 in Calm   4.0 mph 30 % 0.00 in 584.00 W/m2
10:50 59.2 °F 27.8 °F 30.17 in Calm   4.0 mph 30 % 0.00 in 592.00 W/m2
10:55 59.5 °F 27.2 °F 30.17 in Calm   2.0 mph 29 % 0.00 in 601.00 W/m2
11:00 59.8 °F 28.3 °F 30.17 in Calm   2.0 mph 30 % 0.00 in 610.00 W/m2
11:05 60.1 °F 27.8 °F 30.17 in Calm   4.0 mph 29 % 0.00 in 621.00 W/m2
11:10 60.5 °F 26.4 °F 30.17 in Calm   7.0 mph 27 % 0.00 in 626.00 W/m2
11:15 60.8 °F 27.5 °F 30.17 in ESE 4.0 mph 5.0 mph 28 % 0.00 in 635.00 W/m2
11:20 61.1 °F 26.0 °F 30.17 in Calm   6.0 mph 26 % 0.00 in 643.00 W/m2
11:25 61.4 °F 24.3 °F 30.17 in Calm     24 % 0.00 in 649.00 W/m2
11:30 61.7 °F 24.6 °F 30.17 in Calm   6.0 mph 24 % 0.00 in 654.00 W/m2
11:35 62.0 °F 26.8 °F 30.17 in Calm   5.0 mph 26 % 0.00 in 661.00 W/m2
11:40 62.3 °F 26.1 °F 30.17 in Calm   5.0 mph 25 % 0.00 in 668.00 W/m2
11:45 62.6 °F 26.3 °F 30.17 in Calm   6.0 mph 25 % 0.00 in 673.00 W/m2
11:50 62.8 °F 26.5 °F 30.17 in Calm   6.0 mph 25 % 0.00 in 679.00 W/m2
11:55 63.0 °F 26.6 °F 30.17 in Calm   2.0 mph 25 % 0.00 in 682.00 W/m2
12:00 63.2 °F 25.8 °F 30.17 in Calm   6.0 mph 24 % 0.00 in 686.00 W/m2
12:05 63.4 °F 26.0 °F 30.17 in Calm   5.0 mph 24 % 0.00 in 689.00 W/m2
12:10 63.5 °F 26.1 °F 30.17 in WNW 3.0 mph 6.0 mph 24 % 0.00 in 693.00 W/m2
12:15 63.6 °F 26.2 °F 30.17 in West 3.0 mph 5.0 mph 24 % 0.00 in 694.00 W/m2
12:20 63.7 °F 27.2 °F 30.17 in Calm   3.0 mph 25 % 0.00 in 698.00 W/m2
12:25 63.9 °F 27.4 °F 30.17 in West 3.0 mph 4.0 mph 25 % 0.00 in 701.00 W/m2
12:30 64.0 °F 27.5 °F 30.16 in NW 1.0 mph 6.0 mph 25 % 0.00 in 703.00 W/m2
12:35 64.1 °F 27.6 °F 30.16 in Calm   5.0 mph 25 % 0.00 in 703.00 W/m2
12:40 64.1 °F 27.6 °F 30.16 in NW 2.0 mph 3.0 mph 25 % 0.00 in 705.00 W/m2
12:45 64.3 °F 27.8 °F 30.16 in Calm   3.0 mph 25 % 0.00 in 707.00 W/m2
12:50 64.4 °F 27.8 °F 30.15 in Calm   4.0 mph 25 % 0.00 in 701.00 W/m2
12:55 64.5 °F 26.9 °F 30.15 in Calm   6.0 mph 24 % 0.00 in 707.00 W/m2
13:00 64.7 °F 28.1 °F 30.15 in NNW 6.0 mph 8.0 mph 25 % 0.00 in 703.00 W/m2
13:05 64.8 °F 27.2 °F 30.15 in Calm   5.0 mph 24 % 0.00 in 701.00 W/m2
13:10 64.9 °F 27.3 °F 30.15 in WNW 1.0 mph 5.0 mph 24 % 0.00 in 700.00 W/m2
13:15 65.0 °F 27.4 °F 30.15 in WSW 4.0 mph 6.0 mph 24 % 0.00 in 698.00 W/m2
13:20 65.2 °F 27.5 °F 30.14 in WNW 7.0 mph 7.0 mph 24 % 0.00 in 694.00 W/m2
13:25 65.4 °F 27.7 °F 30.14 in Calm   7.0 mph 24 % 0.00 in 691.00 W/m2
13:30 65.6 °F 27.9 °F 30.14 in WNW 2.0 mph 6.0 mph 24 % 0.00 in 687.00 W/m2
13:35 65.7 °F 26.9 °F 30.14 in Calm   7.0 mph 23 % 0.00 in 686.00 W/m2
13:40 65.8 °F 27.0 °F 30.14 in Calm   5.0 mph 23 % 0.00 in 677.00 W/m2
13:45 65.9 °F 28.1 °F 30.13 in Calm   3.0 mph 24 % 0.00 in 675.00 W/m2
13:50 66.1 °F 27.2 °F 30.13 in Calm   1.0 mph 23 % 0.00 in 670.00 W/m2
13:55 66.1 °F 28.3 °F 30.13 in Calm   2.0 mph 24 % 0.00 in 663.00 W/m2
14:00 66.1 °F 27.2 °F 30.13 in WNW 5.0 mph 10.0 mph 23 % 0.00 in 661.00 W/m2
14:05 66.2 °F 27.3 °F 30.13 in WNW 4.0 mph 7.0 mph 23 % 0.00 in 652.00 W/m2
14:10 66.3 °F 27.4 °F 30.13 in WNW 3.0 mph 5.0 mph 23 % 0.00 in 645.00 W/m2
14:15 66.4 °F 27.5 °F 30.13 in WNW 1.0 mph 8.0 mph 23 % 0.00 in 638.00 W/m2
14:20 66.5 °F 28.6 °F 30.13 in Calm   7.0 mph 24 % 0.00 in 628.00 W/m2
14:25 66.5 °F 27.6 °F 30.13 in Calm   9.0 mph 23 % 0.00 in 622.00 W/m2
14:30 66.6 °F 27.7 °F 30.12 in West 1.0 mph 10.0 mph 23 % 0.00 in 613.00 W/m2
14:35 66.6 °F 27.7 °F 30.12 in Calm   8.0 mph 23 % 0.00 in 605.00 W/m2
14:40 66.7 °F 27.8 °F 30.12 in Calm   6.0 mph 23 % 0.00 in 598.00 W/m2
14:45 66.9 °F 27.9 °F 30.12 in Calm   8.0 mph 23 % 0.00 in 587.00 W/m2
14:50 66.9 °F 27.9 °F 30.12 in West 2.0 mph 9.0 mph 23 % 0.00 in 578.00 W/m2
14:55 66.9 °F 26.9 °F 30.12 in WSW 2.0 mph 8.0 mph 22 % 0.00 in 568.00 W/m2
15:00 66.8 °F 27.8 °F 30.12 in WNW 5.0 mph 7.0 mph 23 % 0.00 in 559.00 W/m2
15:05 66.8 °F 27.8 °F 30.11 in WNW 2.0 mph 6.0 mph 23 % 0.00 in 548.00 W/m2
15:10 66.7 °F 26.7 °F 30.12 in WNW 3.0 mph 6.0 mph 22 % 0.00 in 536.00 W/m2
15:16 66.7 °F 27.8 °F 30.12 in Calm     23 % 0.00 in 524.00 W/m2
15:21 66.7 °F 26.7 °F 30.12 in NW 5.0 mph 5.0 mph 22 % 0.00 in 513.00 W/m2
15:26 66.7 °F 26.7 °F 30.12 in Calm   1.0 mph 22 % 0.00 in 503.00 W/m2
15:31 66.7 °F 26.7 °F 30.12 in Calm     22 % 0.00 in 490.00 W/m2
15:36 66.6 °F 26.6 °F 30.12 in Calm     22 % 0.00 in 478.00 W/m2
15:41 66.5 °F 27.6 °F 30.12 in West 2.0 mph 2.0 mph 23 % 0.00 in 464.00 W/m2
15:46 66.5 °F 27.6 °F 30.12 in Calm     23 % 0.00 in 450.00 W/m2
15:51 66.4 °F 27.5 °F 30.12 in Calm   1.0 mph 23 % 0.00 in 434.00 W/m2
15:56 66.4 °F 27.5 °F 30.12 in WNW 3.0 mph 3.0 mph 23 % 0.00 in 424.00 W/m2
16:01 66.4 °F 27.5 °F 30.12 in Calm     23 % 0.00 in 411.00 W/m2
16:06 66.5 °F 27.6 °F 30.12 in Calm   3.0 mph 23 % 0.00 in 396.00 W/m2
16:11 66.5 °F 27.6 °F 30.12 in Calm   1.0 mph 23 % 0.00 in 381.00 W/m2
16:16 66.4 °F 26.4 °F 30.12 in Calm     22 % 0.00 in 369.00 W/m2
16:21 66.4 °F 27.5 °F 30.12 in WNW 3.0 mph 3.0 mph 23 % 0.00 in 350.00 W/m2
16:26 66.4 °F 27.5 °F 30.12 in Calm     23 % 0.00 in 338.00 W/m2
16:31 66.3 °F 27.4 °F 30.11 in West 1.0 mph 1.0 mph 23 % 0.00 in 323.00 W/m2
16:36 66.2 °F 28.4 °F 30.12 in NNW 4.0 mph 7.0 mph 24 % 0.00 in 306.00 W/m2
16:41 66.1 °F 27.2 °F 30.12 in Calm   6.0 mph 23 % 0.00 in 290.00 W/m2
16:46 66.1 °F 27.2 °F 30.11 in Calm     23 % 0.00 in 276.00 W/m2
16:51 66.0 °F 27.2 °F 30.11 in Calm   3.0 mph 23 % 0.00 in 264.00 W/m2
16:56 65.8 °F 27.0 °F 30.11 in Calm     23 % 0.00 in 246.00 W/m2
17:01 65.7 °F 28.0 °F 30.11 in Calm   1.0 mph 24 % 0.00 in 232.00 W/m2
17:06 65.5 °F 27.8 °F 30.11 in Calm   2.0 mph 24 % 0.00 in 211.00 W/m2
17:11 65.3 °F 27.6 °F 30.11 in Calm   4.0 mph 24 % 0.00 in 192.00 W/m2
17:16 65.2 °F 28.5 °F 30.11 in Calm     25 % 0.00 in 172.00 W/m2
17:21 64.9 °F 29.2 °F 30.11 in Calm   6.0 mph 26 % 0.00 in 153.00 W/m2
17:26 64.6 °F 27.0 °F 30.11 in Calm   4.0 mph 24 % 0.00 in 137.00 W/m2
17:31 64.5 °F 25.9 °F 30.11 in Calm   5.0 mph 23 % 0.00 in 113.00 W/m2
17:36 64.3 °F 25.7 °F 30.11 in Calm     23 % 0.00 in 97.00 W/m2
17:41 64.2 °F 25.7 °F 30.12 in Calm   5.0 mph 23 % 0.00 in 79.00 W/m2
17:46 64.0 °F 25.5 °F 30.11 in Calm     23 % 0.00 in 65.00 W/m2
17:51 63.9 °F 27.4 °F 30.11 in Calm     25 % 0.00 in 49.00 W/m2
17:56 63.7 °F 28.2 °F 30.12 in Calm     26 % 0.00 in 39.00 W/m2
18:01 63.5 °F 28.0 °F 30.12 in Calm   1.0 mph 26 % 0.00 in 28.00 W/m2
18:06 63.1 °F 27.7 °F 30.11 in Calm     26 % 0.00 in 21.00 W/m2
18:11 62.6 °F 28.2 °F 30.11 in Calm     27 % 0.00 in 16.00 W/m2
18:16 61.8 °F 28.4 °F 30.11 in Calm   3.0 mph 28 % 0.00 in 12.00 W/m2
18:21 61.3 °F 28.8 °F 30.12 in Calm     29 % 0.00 in 11.00 W/m2
18:26 60.7 °F 28.3 °F 30.11 in Calm     29 % 0.00 in 7.00 W/m2
18:31 60.3 °F 28.8 °F 30.12 in Calm     30 % 0.00 in 5.00 W/m2
18:36 59.7 °F 28.2 °F 30.12 in Calm     30 % 0.00 in 0.00 W/m2
18:41 59.3 °F 28.7 °F 30.12 in Calm     31 % 0.00 in 0.00 W/m2
18:46 59.0 °F 28.4 °F 30.12 in Calm     31 % 0.00 in 0.00 W/m2
18:51 58.6 °F 28.9 °F 30.12 in Calm   3.0 mph 32 % 0.00 in 0.00 W/m2
18:56 58.3 °F 28.6 °F 30.12 in NNW 4.0 mph 7.0 mph 32 % 0.00 in 0.00 W/m2
19:01 58.1 °F 28.4 °F 30.12 in Calm   4.0 mph 32 % 0.00 in 0.00 W/m2
19:06 58.0 °F 28.3 °F 30.12 in NNW 4.0 mph 4.0 mph 32 % 0.00 in 0.00 W/m2
19:11 57.9 °F 29.0 °F 30.12 in Calm     33 % 0.00 in 0.00 W/m2
19:16 57.8 °F 28.9 °F 30.12 in Calm     33 % 0.00 in 0.00 W/m2
19:21 57.5 °F 29.4 °F 30.13 in Calm     34 % 0.00 in 0.00 W/m2
19:27 57.3 °F 29.2 °F 30.13 in NNW 2.0 mph 6.0 mph 34 % 0.00 in 0.00 W/m2
19:32 57.1 °F 29.7 °F 30.13 in Calm   3.0 mph 35 % 0.00 in 0.00 W/m2
19:37 56.7 °F 29.4 °F 30.13 in Calm     35 % 0.00 in 0.00 W/m2
19:42 56.4 °F 29.1 °F 30.13 in Calm     35 % 0.00 in 0.00 W/m2
19:47 56.1 °F 28.8 °F 30.13 in Calm     35 % 0.00 in 0.00 W/m2
19:52 55.9 °F 28.7 °F 30.13 in Calm   1.0 mph 35 % 0.00 in 0.00 W/m2
19:57 55.8 °F 29.3 °F 30.13 in NNW 3.0 mph 4.0 mph 36 % 0.00 in 0.00 W/m2
20:02 55.6 °F 29.1 °F 30.13 in Calm   4.0 mph 36 % 0.00 in 0.00 W/m2
20:07 55.4 °F 28.9 °F 30.13 in Calm     36 % 0.00 in 0.00 W/m2
20:14 55.1 °F 29.3 °F 30.14 in Calm     37 % 0.00 in 0.00 W/m2
20:19 55.0 °F 28.6 °F 30.14 in Calm   4.0 mph 36 % 0.00 in 0.00 W/m2
20:20 55.0 °F 28.6 °F 30.14 in Calm   4.0 mph 36 % 0.00 in 0.00 W/m2
20:25 55.0 °F 29.2 °F 30.14 in Calm     37 % 0.00 in 0.00 W/m2
20:26 54.9 °F 29.1 °F 30.14 in Calm     37 % 0.00 in 0.00 W/m2
20:31 54.8 °F 29.0 °F 30.14 in Calm   3.0 mph 37 % 0.00 in 0.00 W/m2
20:36 54.6 °F 28.9 °F 30.14 in Calm     37 % 0.00 in 0.00 W/m2
20:41 54.6 °F 28.9 °F 30.14 in Calm   1.0 mph 37 % 0.00 in 0.00 W/m2
20:46 54.6 °F 28.2 °F 30.15 in Calm   5.0 mph 36 % 0.00 in 0.00 W/m2
20:51 54.5 °F 28.8 °F 30.15 in Calm     37 % 0.00 in 0.00 W/m2
20:56 54.5 °F 28.1 °F 30.15 in Calm     36 % 0.00 in 0.00 W/m2
21:01 54.4 °F 28.7 °F 30.15 in Calm     37 % 0.00 in 0.00 W/m2
21:06 54.3 °F 28.6 °F 30.15 in Calm     37 % 0.00 in 0.00 W/m2
21:11 54.2 °F 28.5 °F 30.15 in Calm   1.0 mph 37 % 0.00 in 0.00 W/m2
21:12 54.2 °F 28.5 °F 30.15 in Calm   1.0 mph 37 % 0.00 in 0.00 W/m2
21:17 54.1 °F 28.4 °F 30.15 in Calm     37 % 0.00 in 0.00 W/m2
21:22 54.0 °F 29.0 °F 30.15 in Calm   5.0 mph 38 % 0.00 in 0.00 W/m2
21:27 53.8 °F 28.8 °F 30.15 in Calm     38 % 0.00 in 0.00 W/m2
21:32 53.8 °F 28.8 °F 30.16 in Calm     38 % 0.00 in 0.00 W/m2
21:37 53.7 °F 28.7 °F 30.16 in Calm     38 % 0.00 in 0.00 W/m2
21:42 53.6 °F 28.6 °F 30.16 in Calm     38 % 0.00 in 0.00 W/m2
21:47 53.6 °F 28.6 °F 30.16 in Calm     38 % 0.00 in 0.00 W/m2
21:52 53.5 °F 28.5 °F 30.16 in Calm   4.0 mph 38 % 0.00 in 0.00 W/m2
21:57 53.4 °F 28.5 °F 30.16 in Calm   5.0 mph 38 % 0.00 in 0.00 W/m2
22:02 53.4 °F 28.5 °F 30.16 in Calm     38 % 0.00 in 0.00 W/m2
22:07 53.3 °F 27.7 °F 30.16 in Calm   4.0 mph 37 % 0.00 in 0.00 W/m2
22:12 53.2 °F 28.3 °F 30.16 in ENE 3.0 mph 4.0 mph 38 % 0.00 in 0.00 W/m2
22:17 53.2 °F 27.6 °F 30.16 in ENE 6.0 mph 6.0 mph 37 % 0.00 in 0.00 W/m2
22:22 53.0 °F 28.1 °F 30.16 in ENE 4.0 mph 6.0 mph 38 % 0.00 in 0.00 W/m2
22:27 53.0 °F 28.1 °F 30.15 in ENE 2.0 mph 4.0 mph 38 % 0.00 in 0.00 W/m2
22:32 52.9 °F 28.0 °F 30.16 in Calm   4.0 mph 38 % 0.00 in 0.00 W/m2
22:37 52.8 °F 27.9 °F 30.16 in East 8.0 mph 8.0 mph 38 % 0.00 in 0.00 W/m2
22:42 52.7 °F 27.8 °F 30.15 in Calm   6.0 mph 38 % 0.00 in 0.00 W/m2
22:47 52.6 °F 27.1 °F 30.16 in East 6.0 mph 8.0 mph 37 % 0.00 in 0.00 W/m2
22:52 52.6 °F 27.7 °F 30.16 in East 2.0 mph 7.0 mph 38 % 0.00 in 0.00 W/m2
22:57 52.5 °F 27.0 °F 30.15 in Calm   6.0 mph 37 % 0.00 in 0.00 W/m2
23:02 52.5 °F 27.0 °F 30.16 in East 1.0 mph 5.0 mph 37 % 0.00 in 0.00 W/m2
23:07 52.4 °F 27.6 °F 30.15 in Calm   4.0 mph 38 % 0.00 in 0.00 W/m2
23:12 52.4 °F 26.9 °F 30.16 in East 5.0 mph 8.0 mph 37 % 0.00 in 0.00 W/m2
23:17 52.4 °F 26.9 °F 30.16 in East 5.0 mph 6.0 mph 37 % 0.00 in 0.00 W/m2
23:22 52.4 °F 26.9 °F 30.16 in East 2.0 mph 7.0 mph 37 % 0.00 in 0.00 W/m2
23:27 52.3 °F 26.8 °F 30.16 in Calm   8.0 mph 37 % 0.00 in 0.00 W/m2
23:32 52.2 °F 26.7 °F 30.15 in Calm   8.0 mph 37 % 0.00 in 0.00 W/m2
23:37 52.2 °F 26.7 °F 30.16 in East 2.0 mph 9.0 mph 37 % 0.00 in 0.00 W/m2
23:42 52.1 °F 26.6 °F 30.16 in East 4.0 mph 5.0 mph 37 % 0.00 in 0.00 W/m2
23:47 52.1 °F 26.6 °F 30.15 in East 4.0 mph 5.0 mph 37 % 0.00 in 0.00 W/m2
23:52 52.0 °F 26.5 °F 30.15 in East 1.0 mph 6.0 mph 37 % 0.00 in 0.00 W/m2
23:57 52.0 °F 26.5 °F 30.15 in East 4.0 mph 7.0 mph 37 % 0.00 in 0.00 W/m2
Juneau County Weather
Compliments of Weather Underground - 4.5 mb
 WU-history PHP script courtesy of   Juneau County Weather.
powered by Cumulus v1.9.3 (1059)
Ambient Weather VWS v14.00
Top Contact Website Map Copyright © 2007 - 2018 Foresthillweather.com Never base important decisions on this or any weather information obtained from the Internet